,,Stat6,,Stat2,,Stat8,,Stat9,,Stat10,,Wind1,,Wind1,
time,status,PA1M_AVG,status,PR1M_SUM,status,RH1M_AVG,status,SR1M_AVG,status,TA1M_AVG,status,W1dAve1m,status,W1sAve1m,
2008-11-05, 00:00:00,VALID,916.915,VALID,0,VALID,100,VALID,0.0169808,VALID,19.8251,VALID,43,VALID,0,
2008-11-05, 00:01:00,VALID,916.902,VALID,0,VALID,100,VALID,0.0169808,VALID,19.8418,VALID,42,VALID,0,
2008-11-05, 00:02:00,VALID,916.876,VALID,0,VALID,100,VALID,0,VALID,19.8481,VALID,41,VALID,0,
2008-11-05, 00:03:00,VALID,916.853,VALID,0,VALID,100,VALID,-0.0339617,VALID,19.8545,VALID,39,VALID,0,
2008-11-05, 00:04:00,VALID,916.831,VALID,0,VALID,100,VALID,0,VALID,19.8578,VALID,33,VALID,0,
2008-11-05, 00:05:00,VALID,916.787,VALID,0,VALID,100,VALID,-0.0169808,VALID,19.8608,VALID,30,VALID,0,
2008-11-05, 00:06:00,VALID,916.775,VALID,0,VALID,100,VALID,0.0339617,VALID,19.864,VALID,28,VALID,0,
2008-11-05, 00:07:00,VALID,916.738,VALID,0,VALID,100,VALID,0,VALID,19.8708,VALID,28,VALID,0,
2008-11-05, 00:08:00,VALID,916.73,VALID,0,VALID,100,VALID,0.0169808,VALID,19.8675,VALID,28,VALID,0,
2008-11-05, 00:09:00,VALID,916.707,VALID,0,VALID,100,VALID,0.0169808,VALID,19.8735,VALID,28,VALID,0,
2008-11-05, 00:10:00,VALID,916.701,VALID,0,VALID,100,VALID,0.0339617,VALID,19.8768,VALID,28,VALID,0,
2008-11-05, 00:11:00,VALID,916.696,VALID,0,VALID,100,VALID,0.0339617,VALID,19.8832,VALID,27,VALID,0,
2008-11-05, 00:12:00,VALID,916.684,VALID,0,VALID,100,VALID,0.0849042,VALID,19.8765,VALID,26,VALID,0,
2008-11-05, 00:13:00,VALID,916.666,VALID,0,VALID,100,VALID,0.0339617,VALID,19.8703,VALID,25,VALID,0.151786,
2008-11-05, 00:14:00,VALID,916.659,VALID,0,VALID,100,VALID,0.0169808,VALID,19.8441,VALID,17,VALID,0.0557776,
2008-11-05, 00:15:00,VALID,916.649,VALID,0,VALID,100,VALID,0.0509425,VALID,19.8516,VALID,357,VALID,0,
2008-11-05, 00:16:00,VALID,916.649,VALID,0,VALID,100,VALID,0.0339617,VALID,19.8451,VALID,272,VALID,0,
2008-11-05, 00:17:00,VALID,916.641,VALID,0,VALID,100,VALID,0.0339617,VALID,19.8218,VALID,272,VALID,0,
2008-11-05, 00:18:00,VALID,916.623,VALID,0,VALID,100,VALID,0.0169808,VALID,19.8221,VALID,272,VALID,0,
2008-11-05, 00:19:00,VALID,916.621,VALID,0,VALID,100,VALID,0.0339617,VALID,19.8126,VALID,272,VALID,0,
2008-11-05, 00:20:00,VALID,916.599,VALID,0,VALID,100,VALID,-0.101885,VALID,19.8011,VALID,272,VALID,0,
2008-11-05, 00:21:00,VALID,916.587,VALID,0,VALID,100,VALID,-0.101885,VALID,19.7907,VALID,272,VALID,0,
2008-11-05, 00:22:00,VALID,916.566,VALID,0,VALID,100,VALID,-0.118866,VALID,19.8106,VALID,272,VALID,0,
2008-11-05, 00:23:00,VALID,916.555,VALID,0,VALID,100,VALID,-0.0849042,VALID,19.7981,VALID,272,VALID,0,
2008-11-05, 00:24:00,VALID,916.551,VALID,0,VALID,100,VALID,-0.0679233,VALID,19.8044,VALID,272,VALID,0,
2008-11-05, 00:25:00,VALID,916.558,VALID,0,VALID,100,VALID,-0.0679233,VALID,19.8011,VALID,272,VALID,0,
2008-11-05, 00:26:00,VALID,916.565,VALID,0,VALID,100,VALID,-0.118866,VALID,19.7944,VALID,272,VALID,0,
2008-11-05, 00:27:00,VALID,916.575,VALID,0,VALID,100,VALID,-0.0679233,VALID,19.7974,VALID,272,VALID,0,
2008-11-05, 00:28:00,VALID,916.574,VALID,0,VALID,100,VALID,-0.0679233,VALID,19.8039,VALID,272,VALID,0,
2008-11-05, 00:29:00,VALID,916.574,VALID,0,VALID,100,VALID,-0.101885,VALID,19.7974,VALID,272,VALID,0,
2008-11-05, 00:30:00,VALID,916.569,VALID,0,VALID,100,VALID,-0.0679233,VALID,19.7842,VALID,272,VALID,0,
2008-11-05, 00:31:00,VALID,916.544,VALID,0,VALID,100,VALID,-0.0509425,VALID,19.7941,VALID,272,VALID,0,
2008-11-05, 00:32:00,VALID,916.526,VALID,0,VALID,100,VALID,-0.0509425,VALID,19.7934,VALID,272,VALID,0,
2008-11-05, 00:33:00,VALID,916.529,VALID,0,VALID,100,VALID,-0.0509425,VALID,19.8129,VALID,272,VALID,0,
2008-11-05, 00:34:00,VALID,916.544,VALID,0,VALID,100,VALID,-0.0169808,VALID,19.8129,VALID,272,VALID,0,
2008-11-05, 00:35:00,VALID,916.551,VALID,0,VALID,100,VALID,0,VALID,19.8156,VALID,272,VALID,0,
2008-11-05, 00:36:00,VALID,916.562,VALID,0,VALID,100,VALID,0.0169808,VALID,19.8156,VALID,272,VALID,0,
2008-11-05, 00:37:00,VALID,916.562,VALID,0,VALID,100,VALID,0.0169808,VALID,19.8191,VALID,272,VALID,0,
2008-11-05, 00:38:00,VALID,916.567,VALID,0,VALID,100,VALID,0.0339617,VALID,19.7837,VALID,272,VALID,0,
2008-11-05, 00:39:00,VALID,916.557,VALID,0,VALID,100,VALID,0,VALID,19.7729,VALID,272,VALID,0,
2008-11-05, 00:40:00,VALID,916.544,VALID,0,VALID,100,VALID,0,VALID,19.7926,VALID,272,VALID,0,
2008-11-05, 00:41:00,VALID,916.515,VALID,0,VALID,100,VALID,0,VALID,19.8353,VALID,272,VALID,0,
2008-11-05, 00:42:00,VALID,916.502,VALID,0,VALID,100,VALID,0,VALID,19.8545,VALID,272,VALID,0,
2008-11-05, 00:43:00,VALID,916.502,VALID,0,VALID,100,VALID,0,VALID,19.8705,VALID,272,VALID,0,
2008-11-05, 00:44:00,VALID,916.495,VALID,0,VALID,100,VALID,0,VALID,19.9005,VALID,272,VALID,0,
2008-11-05, 00:45:00,VALID,916.492,VALID,0,VALID,100,VALID,-0.0169808,VALID,19.9067,VALID,272,VALID,0,
2008-11-05, 00:46:00,VALID,916.515,VALID,0,VALID,100,VALID,-0.0169808,VALID,19.9199,VALID,272,VALID,0,
2008-11-05, 00:47:00,VALID,916.527,VALID,0,VALID,100,VALID,-0.0169808,VALID,19.9359,VALID,272,VALID,0,
2008-11-05, 00:48:00,VALID,916.518,VALID,0,VALID,100,VALID,0,VALID,19.9649,VALID,275,VALID,0,
2008-11-05, 00:49:00,VALID,916.532,VALID,0,VALID,100,VALID,0,VALID,19.9876,VALID,280,VALID,0.0310444,
2008-11-05, 00:50:00,VALID,916.527,VALID,0,VALID,100,VALID,0.0169808,VALID,20.0035,VALID,314,VALID,0.0651042,
2008-11-05, 00:51:00,VALID,916.533,VALID,0,VALID,100,VALID,0.0169808,VALID,20.0035,VALID,3,VALID,0.672656,
2008-11-05, 00:52:00,VALID,916.534,VALID,0,VALID,100,VALID,0,VALID,19.9841,VALID,15,VALID,0.455669,
2008-11-05, 00:53:00,VALID,916.515,VALID,0,VALID,100,VALID,0,VALID,19.9646,VALID,15,VALID,0,
2008-11-05, 00:54:00,VALID,916.521,VALID,0,VALID,100,VALID,-0.0339617,VALID,19.9619,VALID,15,VALID,0.0456032,
2008-11-05, 00:55:00,VALID,916.503,VALID,0,VALID,100,VALID,0,VALID,19.9556,VALID,15,VALID,0.24966,
2008-11-05, 00:56:00,VALID,916.504,VALID,0,VALID,100,VALID,-0.0169808,VALID,19.9489,VALID,17,VALID,0.450149,
2008-11-05, 00:57:00,VALID,916.484,VALID,0,VALID,100,VALID,0.0169808,VALID,19.9419,VALID,20,VALID,0,
2008-11-05, 00:58:00,VALID,916.485,VALID,0,VALID,100,VALID,0,VALID,19.9424,VALID,20,VALID,0,
2008-11-05, 00:59:00,VALID,916.478,VALID,0,VALID,100,VALID,0,VALID,19.9419,VALID,18,VALID,0,
2008-11-05, 01:00:00,VALID,916.471,VALID,0,VALID,100,VALID,0,VALID,19.9486,VALID,13,VALID,0,
2008-11-05, 01:01:00,VALID,916.475,VALID,0,VALID,100,VALID,0.0169808,VALID,19.9514,VALID,13,VALID,0,
2008-11-05, 01:02:00,VALID,916.471,VALID,0,VALID,100,VALID,0,VALID,19.9484,VALID,13,VALID,0,
2008-11-05, 01:03:00,VALID,916.47,VALID,0,VALID,100,VALID,0,VALID,19.9554,VALID,16,VALID,0,
2008-11-05, 01:04:00,VALID,916.454,VALID,0,VALID,100,VALID,0.0169808,VALID,19.9416,VALID,16,VALID,0,
2008-11-05, 01:05:00,VALID,916.465,VALID,0,VALID,100,VALID,0,VALID,19.9751,VALID,16,VALID,0,
2008-11-05, 01:06:00,VALID,916.461,VALID,0,VALID,100,VALID,0,VALID,19.9741,VALID,16,VALID,0,
2008-11-05, 01:07:00,VALID,916.472,VALID,0,VALID,100,VALID,0,VALID,19.9876,VALID,11,VALID,0,
2008-11-05, 01:08:00,VALID,916.456,VALID,0,VALID,100,VALID,0.0169808,VALID,20.0006,VALID,314,VALID,0,
2008-11-05, 01:09:00,VALID,916.437,VALID,0,VALID,100,VALID,0.0339617,VALID,20.0003,VALID,314,VALID,0,
2008-11-05, 01:10:00,VALID,916.426,VALID,0,VALID,100,VALID,0.0169808,VALID,20.0135,VALID,314,VALID,0,
2008-11-05, 01:11:00,VALID,916.408,VALID,0,VALID,100,VALID,0.0169808,VALID,20.0138,VALID,314,VALID,0,
2008-11-05, 01:12:00,VALID,916.391,VALID,0,VALID,100,VALID,0,VALID,20.02,VALID,314,VALID,0,
2008-11-05, 01:13:00,VALID,916.373,VALID,0,VALID,100,VALID,0,VALID,20.0395,VALID,314,VALID,0,
2008-11-05, 01:14:00,VALID,916.342,VALID,0,VALID,100,VALID,0.0169808,VALID,20.0395,VALID,314,VALID,0,
2008-11-05, 01:15:00,VALID,916.312,VALID,0,VALID,100,VALID,-0.0339617,VALID,20.0333,VALID,2,VALID,0,
2008-11-05, 01:16:00,VALID,916.292,VALID,0,VALID,100,VALID,0.0169808,VALID,20.0465,VALID,9,VALID,0,
2008-11-05, 01:17:00,VALID,916.266,VALID,0,VALID,100,VALID,0,VALID,20.03,VALID,9,VALID,0,
2008-11-05, 01:18:00,VALID,916.241,VALID,0,VALID,100,VALID,0,VALID,20.043,VALID,9,VALID,0,
2008-11-05, 01:19:00,VALID,916.228,VALID,0,VALID,100,VALID,0,VALID,20.043,VALID,9,VALID,0,
2008-11-05, 01:20:00,VALID,916.204,VALID,0,VALID,100,VALID,0,VALID,20.056,VALID,9,VALID,0,
2008-11-05, 01:21:00,VALID,916.2,VALID,0,VALID,100,VALID,0,VALID,20.0652,VALID,9,VALID,0,
2008-11-05, 01:22:00,VALID,916.185,VALID,0,VALID,100,VALID,0.0169808,VALID,20.0887,VALID,9,VALID,0,
2008-11-05, 01:23:00,VALID,916.166,VALID,0,VALID,100,VALID,0.0169808,VALID,20.0907,VALID,7,VALID,0.156597,
2008-11-05, 01:24:00,VALID,916.156,VALID,0,VALID,100,VALID,0,VALID,20.1206,VALID,4,VALID,0,
2008-11-05, 01:25:00,VALID,916.139,VALID,0,VALID,100,VALID,0,VALID,20.1236,VALID,4,VALID,0,
2008-11-05, 01:26:00,VALID,916.097,VALID,0,VALID,100,VALID,0,VALID,20.1298,VALID,4,VALID,0,
2008-11-05, 01:27:00,VALID,916.086,VALID,0,VALID,100,VALID,0,VALID,20.1593,VALID,4,VALID,0,
2008-11-05, 01:28:00,VALID,916.057,VALID,0,VALID,100,VALID,0,VALID,20.1625,VALID,4,VALID,0,
2008-11-05, 01:29:00,VALID,916.044,VALID,0,VALID,100,VALID,0.0169808,VALID,20.1788,VALID,4,VALID,0,
2008-11-05, 01:30:00,VALID,916.04,VALID,0,VALID,100,VALID,0.0169808,VALID,20.1885,VALID,4,VALID,0,
2008-11-05, 01:31:00,VALID,916.041,VALID,0,VALID,100,VALID,0,VALID,20.212,VALID,4,VALID,0,
2008-11-05, 01:32:00,VALID,916.036,VALID,0,VALID,100,VALID,0,VALID,20.2215,VALID,4,VALID,0,
2008-11-05, 01:33:00,VALID,916.039,VALID,0,VALID,100,VALID,-0.0169808,VALID,20.2252,VALID,4,VALID,0,
2008-11-05, 01:34:00,VALID,916.049,VALID,0,VALID,100,VALID,0.0169808,VALID,20.2309,VALID,4,VALID,0,
2008-11-05, 01:35:00,VALID,916.044,VALID,0,VALID,100,VALID,-0.0169808,VALID,20.2409,VALID,4,VALID,0,
2008-11-05, 01:36:00,VALID,916.031,VALID,0,VALID,100,VALID,0,VALID,20.221,VALID,4,VALID,0,
2008-11-05, 01:37:00,VALID,916.018,VALID,0,VALID,100,VALID,0,VALID,20.1982,VALID,4,VALID,0,
2008-11-05, 01:38:00,VALID,915.999,VALID,0,VALID,100,VALID,0,VALID,20.1987,VALID,4,VALID,0,
2008-11-05, 01:39:00,VALID,915.976,VALID,0,VALID,100,VALID,0,VALID,20.1888,VALID,4,VALID,0,
2008-11-05, 01:40:00,VALID,915.978,VALID,0,VALID,100,VALID,0,VALID,20.1858,VALID,4,VALID,0,
2008-11-05, 01:41:00,VALID,915.968,VALID,0,VALID,100,VALID,0,VALID,20.1658,VALID,4,VALID,0,
2008-11-05, 01:42:00,VALID,915.948,VALID,0,VALID,100,VALID,-0.0169808,VALID,20.1695,VALID,4,VALID,0,
2008-11-05, 01:43:00,VALID,915.933,VALID,0,VALID,100,VALID,0,VALID,20.166,VALID,4,VALID,0,
2008-11-05, 01:44:00,VALID,915.918,VALID,0,VALID,100,VALID,0,VALID,20.179,VALID,4,VALID,0,
2008-11-05, 01:45:00,VALID,915.901,VALID,0,VALID,100,VALID,-0.0169808,VALID,20.1693,VALID,4,VALID,0,
2008-11-05, 01:46:00,VALID,915.888,VALID,0,VALID,100,VALID,0,VALID,20.1566,VALID,4,VALID,0,
2008-11-05, 01:47:00,VALID,915.884,VALID,0,VALID,100,VALID,-0.0339617,VALID,20.1371,VALID,4,VALID,0,
2008-11-05, 01:48:00,VALID,915.872,VALID,0,VALID,100,VALID,-0.0169808,VALID,20.1339,VALID,4,VALID,0,
2008-11-05, 01:49:00,VALID,915.868,VALID,0,VALID,100,VALID,0,VALID,20.1204,VALID,4,VALID,0,
2008-11-05, 01:50:00,VALID,915.87,VALID,0,VALID,100,VALID,0,VALID,20.1239,VALID,4,VALID,0,
2008-11-05, 01:51:00,VALID,915.868,VALID,0,VALID,100,VALID,0,VALID,20.1234,VALID,4,VALID,0,
2008-11-05, 01:52:00,VALID,915.849,VALID,0,VALID,100,VALID,0,VALID,20.1339,VALID,4,VALID,0,
2008-11-05, 01:53:00,VALID,915.83,VALID,0,VALID,100,VALID,-0.0169808,VALID,20.1533,VALID,4,VALID,0,
2008-11-05, 01:54:00,VALID,915.804,VALID,0,VALID,100,VALID,0,VALID,20.1566,VALID,4,VALID,0,
2008-11-05, 01:55:00,VALID,915.79,VALID,0,VALID,100,VALID,-0.0169808,VALID,20.159,VALID,4,VALID,0,
2008-11-05, 01:56:00,VALID,915.774,VALID,0,VALID,100,VALID,0,VALID,20.1336,VALID,4,VALID,0,
2008-11-05, 01:57:00,VALID,915.764,VALID,0,VALID,100,VALID,-0.0169808,VALID,20.0777,VALID,29,VALID,0.18064,
2008-11-05, 01:58:00,VALID,915.74,VALID,0,VALID,100,VALID,0,VALID,20.036,VALID,78,VALID,0.511242,
2008-11-05, 01:59:00,VALID,915.743,VALID,0,VALID,100,VALID,0,VALID,19.9773,VALID,75,VALID,0.116235,
2008-11-05, 02:00:00,VALID,915.728,VALID,0,VALID,100,VALID,0,VALID,19.9459,VALID,98,VALID,0.0851935,
2008-11-05, 02:01:00,VALID,915.715,VALID,0,VALID,100,VALID,-0.0169808,VALID,19.9122,VALID,105,VALID,0.0120739,
2008-11-05, 02:02:00,VALID,915.71,VALID,0,VALID,100,VALID,-0.0169808,VALID,19.897,VALID,105,VALID,0.0932049,
2008-11-05, 02:03:00,VALID,915.707,VALID,0,VALID,100,VALID,-0.0169808,VALID,19.8738,VALID,110,VALID,0,
2008-11-05, 02:04:00,VALID,915.714,VALID,0,VALID,100,VALID,0,VALID,19.8476,VALID,110,VALID,0,
2008-11-05, 02:05:00,VALID,915.705,VALID,0,VALID,100,VALID,0.0169808,VALID,19.8351,VALID,110,VALID,0,
2008-11-05, 02:06:00,VALID,915.705,VALID,0,VALID,100,VALID,0,VALID,19.8281,VALID,111,VALID,0,
2008-11-05, 02:07:00,VALID,915.686,VALID,0,VALID,100,VALID,0,VALID,19.8218,VALID,115,VALID,0.0836293,
2008-11-05, 02:08:00,VALID,915.672,VALID,0,VALID,100,VALID,-0.0169808,VALID,19.8086,VALID,125,VALID,0.404576,
2008-11-05, 02:09:00,VALID,915.666,VALID,0,VALID,100,VALID,0,VALID,19.8026,VALID,117,VALID,0.598323,
2008-11-05, 02:10:00,VALID,915.65,VALID,0,VALID,100,VALID,0.0169808,VALID,19.7961,VALID,136,VALID,0.259084,
2008-11-05, 02:11:00,VALID,915.651,VALID,0,VALID,100,VALID,0.0339617,VALID,19.7954,VALID,144,VALID,0,
2008-11-05, 02:12:01,VALID,915.655,VALID,0,VALID,100,VALID,0,VALID,19.7986,VALID,144,VALID,0,
2008-11-05, 02:13:01,VALID,915.664,VALID,0,VALID,100,VALID,0,VALID,19.8089,VALID,144,VALID,0,
2008-11-05, 02:14:01,VALID,915.658,VALID,0,VALID,100,VALID,0.0169808,VALID,19.8216,VALID,144,VALID,0,
2008-11-05, 02:15:00,VALID,915.654,VALID,0,VALID,100,VALID,-0.0169808,VALID,19.8378,VALID,144,VALID,0,
2008-11-05, 02:16:01,VALID,915.659,VALID,0,VALID,100,VALID,0.0169808,VALID,19.8446,VALID,144,VALID,0,
2008-11-05, 02:17:00,VALID,915.664,VALID,0,VALID,100,VALID,0,VALID,19.861,VALID,144,VALID,0,
2008-11-05, 02:18:00,VALID,915.667,VALID,0,VALID,100,VALID,0,VALID,19.8743,VALID,144,VALID,0,
2008-11-05, 02:19:00,VALID,915.675,VALID,0,VALID,100,VALID,0,VALID,19.9,VALID,144,VALID,0,
2008-11-05, 02:20:00,VALID,915.69,VALID,0,VALID,100,VALID,-0.0339617,VALID,19.9129,VALID,150,VALID,0,
2008-11-05, 02:21:00,VALID,915.684,VALID,0,VALID,100,VALID,0,VALID,19.8962,VALID,150,VALID,0,
2008-11-05, 02:22:00,VALID,915.688,VALID,0,VALID,100,VALID,-0.0339617,VALID,19.9129,VALID,150,VALID,0,
2008-11-05, 02:23:00,VALID,915.683,VALID,0,VALID,100,VALID,0,VALID,19.8997,VALID,150,VALID,0,
2008-11-05, 02:24:01,VALID,915.677,VALID,0,VALID,100,VALID,0,VALID,19.9124,VALID,150,VALID,0,
2008-11-05, 02:25:00,VALID,915.688,VALID,0,VALID,100,VALID,0,VALID,19.9392,VALID,150,VALID,0,
2008-11-05, 02:26:00,VALID,915.694,VALID,0,VALID,100,VALID,-0.0169808,VALID,19.9384,VALID,150,VALID,0,
2008-11-05, 02:27:00,VALID,915.722,VALID,0,VALID,100,VALID,0,VALID,19.9546,VALID,150,VALID,0,
2008-11-05, 02:28:01,VALID,915.731,VALID,0,VALID,100,VALID,-0.0169808,VALID,19.9644,VALID,150,VALID,0,
2008-11-05, 02:29:00,VALID,915.742,VALID,0,VALID,100,VALID,-0.0169808,VALID,19.9641,VALID,150,VALID,0,
2008-11-05, 02:30:01,VALID,915.768,VALID,0,VALID,100,VALID,0,VALID,19.9943,VALID,150,VALID,0,
2008-11-05, 02:31:00,VALID,915.765,VALID,0,VALID,100,VALID,0,VALID,20.0006,VALID,150,VALID,0,
2008-11-05, 02:32:00,VALID,915.783,VALID,0,VALID,100,VALID,0.0169808,VALID,20.0165,VALID,150,VALID,0,
2008-11-05, 02:33:01,VALID,915.763,VALID,0,VALID,100,VALID,0,VALID,20.0427,VALID,150,VALID,0,
2008-11-05, 02:34:00,VALID,915.774,VALID,0,VALID,100,VALID,0,VALID,20.046,VALID,150,VALID,0,
2008-11-05, 02:35:01,VALID,915.774,VALID,0,VALID,100,VALID,-0.0339617,VALID,20.043,VALID,150,VALID,0,
2008-11-05, 02:36:01,VALID,915.758,VALID,0,VALID,100,VALID,-0.0169808,VALID,20.0495,VALID,150,VALID,0,
2008-11-05, 02:37:00,VALID,915.741,VALID,0,VALID,100,VALID,-0.0169808,VALID,20.066,VALID,150,VALID,0,
2008-11-05, 02:38:00,VALID,915.731,VALID,0,VALID,100,VALID,-0.0509425,VALID,20.0787,VALID,150,VALID,0,
2008-11-05, 02:39:01,VALID,915.724,VALID,0,VALID,100,VALID,-0.0169808,VALID,20.0922,VALID,150,VALID,0,
2008-11-05, 02:40:01,VALID,915.718,VALID,0,VALID,100,VALID,0,VALID,20.1081,VALID,150,VALID,0,
2008-11-05, 02:41:00,VALID,915.718,VALID,0,VALID,100,VALID,-0.0169808,VALID,20.1306,VALID,150,VALID,0,
2008-11-05, 02:42:01,VALID,915.704,VALID,0,VALID,100,VALID,0,VALID,20.1633,VALID,150,VALID,0,
2008-11-05, 02:43:01,VALID,915.697,VALID,0,VALID,100,VALID,-0.0509425,VALID,20.1701,VALID,150,VALID,0,
2008-11-05, 02:44:01,VALID,915.694,VALID,0,VALID,100,VALID,-0.0339617,VALID,20.1666,VALID,150,VALID,0,
2008-11-05, 02:45:00,VALID,915.681,VALID,0,VALID,100,VALID,-0.0339617,VALID,20.1631,VALID,150,VALID,0,
2008-11-05, 02:46:00,VALID,915.666,VALID,0,VALID,100,VALID,-0.0679233,VALID,20.1571,VALID,150,VALID,0,
2008-11-05, 02:47:00,VALID,915.644,VALID,0,VALID,100,VALID,-0.0169808,VALID,20.1603,VALID,150,VALID,0,
2008-11-05, 02:48:00,VALID,915.652,VALID,0,VALID,100,VALID,-0.0679233,VALID,20.1633,VALID,150,VALID,0,
2008-11-05, 02:49:00,VALID,915.632,VALID,0,VALID,100,VALID,-0.0509425,VALID,20.1698,VALID,193,VALID,0.230196,
2008-11-05, 02:50:01,VALID,915.63,VALID,0,VALID,100,VALID,-0.0339617,VALID,20.169,VALID,218,VALID,0,
2008-11-05, 02:51:00,VALID,915.627,VALID,0,VALID,100,VALID,-0.0679233,VALID,20.1698,VALID,218,VALID,0,
2008-11-05, 02:52:01,VALID,915.615,VALID,0,VALID,100,VALID,-0.0339617,VALID,20.1765,VALID,218,VALID,0,
2008-11-05, 02:53:00,VALID,915.609,VALID,0,VALID,100,VALID,-0.0169808,VALID,20.186,VALID,218,VALID,0,
2008-11-05, 02:54:00,VALID,915.622,VALID,0,VALID,100,VALID,-0.0339617,VALID,20.196,VALID,218,VALID,0,
2008-11-05, 02:55:00,VALID,915.624,VALID,0,VALID,100,VALID,0,VALID,20.1923,VALID,218,VALID,0,
2008-11-05, 02:56:00,VALID,915.638,VALID,0,VALID,100,VALID,-0.0339617,VALID,20.1987,VALID,218,VALID,0,
2008-11-05, 02:57:00,VALID,915.638,VALID,0,VALID,100,VALID,-0.0339617,VALID,20.2122,VALID,218,VALID,0,
2008-11-05, 02:58:00,VALID,915.635,VALID,0,VALID,100,VALID,-0.0509425,VALID,20.1958,VALID,213,VALID,0,
2008-11-05, 02:59:01,VALID,915.645,VALID,0,VALID,100,VALID,-0.0509425,VALID,20.1728,VALID,213,VALID,0,
2008-11-05, 03:00:00,VALID,915.656,VALID,0,VALID,100,VALID,-0.0339617,VALID,20.1503,VALID,213,VALID,0,
2008-11-05, 03:01:00,VALID,915.641,VALID,0,VALID,100,VALID,-0.0509425,VALID,20.1211,VALID,213,VALID,0,
2008-11-05, 03:02:01,VALID,915.647,VALID,0,VALID,100,VALID,-0.0849042,VALID,20.1081,VALID,213,VALID,0,
2008-11-05, 03:03:00,VALID,915.636,VALID,0,VALID,100,VALID,-0.0509425,VALID,20.1081,VALID,213,VALID,0,
2008-11-05, 03:04:00,VALID,915.602,VALID,0,VALID,100,VALID,0,VALID,20.1179,VALID,213,VALID,0,
2008-11-05, 03:05:01,VALID,915.607,VALID,0,VALID,100,VALID,-0.0679233,VALID,20.1276,VALID,213,VALID,0,
2008-11-05, 03:06:01,VALID,915.573,VALID,0,VALID,100,VALID,-0.0169808,VALID,20.1304,VALID,212,VALID,0,
2008-11-05, 03:07:01,VALID,915.558,VALID,0,VALID,100,VALID,-0.0169808,VALID,20.1244,VALID,205,VALID,0,
2008-11-05, 03:08:01,VALID,915.535,VALID,0,VALID,100,VALID,-0.0509425,VALID,20.1141,VALID,205,VALID,0,
2008-11-05, 03:09:01,VALID,915.519,VALID,0,VALID,100,VALID,-0.0169808,VALID,20.0949,VALID,205,VALID,0,
2008-11-05, 03:10:01,VALID,915.505,VALID,0,VALID,100,VALID,-0.0169808,VALID,20.1209,VALID,205,VALID,0,
2008-11-05, 03:11:01,VALID,915.487,VALID,0,VALID,100,VALID,0,VALID,20.1146,VALID,205,VALID,0,
2008-11-05, 03:12:00,VALID,915.491,VALID,0,VALID,100,VALID,-0.0169808,VALID,20.1179,VALID,205,VALID,0,
2008-11-05, 03:13:00,VALID,915.501,VALID,0,VALID,100,VALID,-0.0509425,VALID,20.0984,VALID,205,VALID,0,
2008-11-05, 03:14:00,VALID,915.497,VALID,0,VALID,100,VALID,-0.0169808,VALID,20.1017,VALID,205,VALID,0,
2008-11-05, 03:15:00,VALID,915.499,VALID,0,VALID,100,VALID,-0.0169808,VALID,20.1211,VALID,205,VALID,0,
2008-11-05, 03:16:00,VALID,915.504,VALID,0,VALID,100,VALID,-0.0169808,VALID,20.1274,VALID,205,VALID,0,
2008-11-05, 03:17:00,VALID,915.492,VALID,0,VALID,100,VALID,-0.0169808,VALID,20.1341,VALID,205,VALID,0,
2008-11-05, 03:18:00,VALID,915.498,VALID,0,VALID,100,VALID,-0.0509425,VALID,20.1603,VALID,205,VALID,0,
2008-11-05, 03:19:00,VALID,915.494,VALID,0,VALID,100,VALID,-0.0509425,VALID,20.173,VALID,205,VALID,0,
2008-11-05, 03:20:00,VALID,915.484,VALID,0,VALID,100,VALID,-0.0339617,VALID,20.1533,VALID,205,VALID,0,
2008-11-05, 03:21:00,VALID,915.478,VALID,0,VALID,100,VALID,-0.0169808,VALID,20.1341,VALID,205,VALID,0,
2008-11-05, 03:22:00,VALID,915.473,VALID,0,VALID,100,VALID,0,VALID,20.1506,VALID,205,VALID,0,
2008-11-05, 03:23:00,VALID,915.474,VALID,0,VALID,100,VALID,-0.0169808,VALID,20.1666,VALID,205,VALID,0,
2008-11-05, 03:24:00,VALID,915.46,VALID,0,VALID,100,VALID,-0.0339617,VALID,20.1733,VALID,205,VALID,0,
2008-11-05, 03:25:00,VALID,915.441,VALID,0,VALID,100,VALID,-0.0849042,VALID,20.1541,VALID,205,VALID,0,
2008-11-05, 03:26:00,VALID,915.435,VALID,0,VALID,100,VALID,-0.0169808,VALID,20.1603,VALID,205,VALID,0,
2008-11-05, 03:27:00,VALID,915.427,VALID,0,VALID,100,VALID,-0.0849042,VALID,20.1828,VALID,205,VALID,0,
2008-11-05, 03:28:00,VALID,915.419,VALID,0,VALID,100,VALID,-0.0339617,VALID,20.2252,VALID,205,VALID,0,
2008-11-05, 03:29:00,VALID,915.423,VALID,0,VALID,100,VALID,-0.0509425,VALID,20.2315,VALID,205,VALID,0,
2008-11-05, 03:30:00,VALID,915.438,VALID,0,VALID,100,VALID,-0.0339617,VALID,20.2282,VALID,205,VALID,0,
2008-11-05, 03:31:00,VALID,915.427,VALID,0,VALID,100,VALID,-0.0679233,VALID,20.2412,VALID,205,VALID,0,
2008-11-05, 03:32:00,VALID,915.431,VALID,0,VALID,100,VALID,-0.0509425,VALID,20.2477,VALID,205,VALID,0,
2008-11-05, 03:33:00,VALID,915.429,VALID,0,VALID,100,VALID,-0.0339617,VALID,20.2672,VALID,205,VALID,0,
2008-11-05, 03:34:00,VALID,915.429,VALID,0,VALID,100,VALID,-0.0509425,VALID,20.2866,VALID,205,VALID,0,
2008-11-05, 03:35:00,VALID,915.435,VALID,0,VALID,100,VALID,-0.101885,VALID,20.2869,VALID,205,VALID,0,
2008-11-05, 03:36:00,VALID,915.44,VALID,0,VALID,100,VALID,-0.0849042,VALID,20.2771,VALID,205,VALID,0,
2008-11-05, 03:37:00,VALID,915.432,VALID,0,VALID,100,VALID,-0.101885,VALID,20.2542,VALID,205,VALID,0,
2008-11-05, 03:38:00,VALID,915.427,VALID,0,VALID,100,VALID,-0.0339617,VALID,20.2547,VALID,205,VALID,0,
2008-11-05, 03:39:00,VALID,915.425,VALID,0,VALID,100,VALID,-0.0509425,VALID,20.2347,VALID,257,VALID,0.0242686,
2008-11-05, 03:40:00,VALID,915.42,VALID,0,VALID,100,VALID,-0.0849042,VALID,20.2155,VALID,7,VALID,0.23165,
2008-11-05, 03:41:00,VALID,915.422,VALID,0,VALID,100,VALID,-0.0849042,VALID,20.209,VALID,7,VALID,0,
2008-11-05, 03:42:00,VALID,915.422,VALID,0,VALID,100,VALID,-0.0849042,VALID,20.2287,VALID,9,VALID,0,
2008-11-05, 03:43:00,VALID,915.404,VALID,0,VALID,100,VALID,-0.0849042,VALID,20.1958,VALID,12,VALID,0,
2008-11-05, 03:44:00,VALID,915.409,VALID,0,VALID,100,VALID,-0.0339617,VALID,20.1601,VALID,12,VALID,0,
2008-11-05, 03:45:00,VALID,915.413,VALID,0,VALID,100,VALID,-0.0509425,VALID,20.1471,VALID,13,VALID,0,
2008-11-05, 03:46:00,VALID,915.412,VALID,0,VALID,100,VALID,-0.0509425,VALID,20.1468,VALID,15,VALID,0,
2008-11-05, 03:47:00,VALID,915.402,VALID,0,VALID,100,VALID,-0.0679233,VALID,20.1241,VALID,15,VALID,0,
2008-11-05, 03:48:00,VALID,915.398,VALID,0,VALID,100,VALID,-0.0339617,VALID,20.1276,VALID,15,VALID,0,
2008-11-05, 03:49:00,VALID,915.395,VALID,0,VALID,100,VALID,-0.0679233,VALID,20.1141,VALID,15,VALID,0,
2008-11-05, 03:50:00,VALID,915.386,VALID,0,VALID,100,VALID,0.0679233,VALID,20.1001,VALID,15,VALID,0,
2008-11-05, 03:51:00,VALID,915.382,VALID,0,VALID,100,VALID,0.0509425,VALID,20.1134,VALID,15,VALID,0,
2008-11-05, 03:52:00,VALID,915.383,VALID,0,VALID,100,VALID,0,VALID,20.0939,VALID,15,VALID,0,
2008-11-05, 03:53:00,VALID,915.387,VALID,0,VALID,100,VALID,0,VALID,20.0909,VALID,15,VALID,0,
2008-11-05, 03:54:00,VALID,915.394,VALID,0,VALID,100,VALID,0.0509425,VALID,20.0804,VALID,15,VALID,0,
2008-11-05, 03:55:00,VALID,915.395,VALID,0,VALID,100,VALID,0.0849042,VALID,20.1066,VALID,15,VALID,0,